Location: Unspecified
(0.0000°N, 0.0000°E)
Time: 11:21:05
(UTC+00:00)

Vanguard 1 Rocket - Pass Details

Date: 20 November 2019
Orbit: 650 x 4226 km, 34.3° (Epoch: 13 December)

Event Time Altitude Azimuth Distance (km) Brightness Sun altitude
Rises 17:56:08 0° 229° (SW) 8,455 13.9 -2.5°
Reaches altitude 10° 18:04:59 10° 216° (SW) 7,390 13.0 -4.6°
Maximum altitude 18:22:37 23° 170° (S) 5,532 11.5 -8.7°
Drops below altitude 10° 18:35:28 10° 124° (ESE) 5,412 11.0 -11.7°
Sets 18:40:18 0° 109° (ESE) 5,863 11.1 -12.8°
